Tracking 23757 objects as of 26-Oct-2021
HD Live streaming from Space Station
objects crossing your sky now

IRIDIUM 33 DEB

Track IRIDIUM 33 DEB now!
10-day predictions


NORAD ID: 34079
Int'l Code: 1997-051CN
Perigee: 723.2 km
Apogee: 741.9 km
Inclination: 86.4 °
Period: 99.3 minutes
Semi major axis: 7103 km
RCS: 0.0496 m2 (small)
Launch date: September 14, 1997
Source: United States (US)
Launch site: TYURATAM MISSILE AND SPACE COMPLEX (TTMTR)

Note: This is SATELLITE DEBRIS
aabbcc
Your satellite tracking list
Your tracking list is empty




NASA's NSSDC Master Catalog

Two Line Element Set (TLE):
1 34079U 97051CN  21299.08268113  .00001264  00000-0  32033-3 0  9994
2 34079  86.3860 309.3201 0013197  68.9263 350.3992 14.50078154669556
Source of the keplerian elements: AFSPC